Regional Weather Roundup
Issued by NWS

Home | Current Version | Previous Version | Text Only | Print | Product List | Glossary On
Versions: 1 2 3 4 5 6 7 8 9 10 11 12 13 14 15 16 17 18 19 20 21 22 23 24 25 26 27 28 29 30 31 32 33 34 35 36 37 38 39 40 41 42 43 44 45 46 47 48 49 50
000
ASCA42 TJSJ 301110
RWRPR
PUERTO RICO/U.S. VIRGIN ISLANDS HOURLY WEATHER ROUNDUP
NATIONAL WEATHER SERVICE SAN JUAN PR
700 AM AST TUE MAY 30 2017

PRZ001>002-007>008-010-301200-
PUERTO RICO

CITY           SKY/WX    TMP DP  RH WIND       PRES   REMARKS
SAN JUAN LMM   MOSUNNY   79  73  83 E10       30.09S
AGUADILLA      SUNNY     75  72  88 E6        30.09
CEIBA          PTSUNNY   81  79  94 E6        30.11R
$$

VIZ001>002-301200-
U.S. VIRGIN ISLANDS

CITY           SKY/WX    TMP DP  RH WIND       PRES   REMARKS
CHARLOTTE AMA  SUNNY     82  79  89 E10       30.09R HX  93
CHRISTIANSTED  MOSUNNY   81  75  83 E14       30.08S
$$

HOURLY WEATHER ROUNDUP FOR THE NEWS MEDIA

CITY           SKY/WX    TMP DP  RH WIND       PRES   REMARKS
ORLANDO        CLEAR     78  73  84 NW5       30.10R
NEW YORK       CLOUDY    55  55 100 SE9       30.17R
NEWARK         CLOUDY    56  54  93 S7        30.15S
CHICAGO        PTCLDY    55  46  71 W8        29.93R
HARTFORD       CLOUDY    51  49  92 CALM      30.19R
BOSTON         CLOUDY    50  48  93 NE3       30.20
DALLAS         PTCLDY    66  60  81 CALM      30.06S
PHILADELPHIA   CLOUDY    57  53  86 E8        30.13R
LOS ANGELES    CLOUDY    61  57  87 SE7       29.89F
WASHINGTON DC  DRZL/FOG  63  62  97 E6        30.06R VSB 1/2


USA.gov is the U.S. government's official web portal to all federal, state and local government web resources and services.